Vertical_Velocity
25 28 30 14 0 9 -1 12 -0 2 -1 1 1 1 1 2 2 2 -1 -1 -2 -2 -2 0 -2 -4 -4 -4 -3 -3 -0 -1
-6 -8 -9 -13 1 14 15 -2 -4 3 3 -1 3 3 2 5 6 5 -4 -1 0 -4 0 -4 2 -3 -4 -5 -2 2 2 -2
-3 -10 10 6 -6 -6 -1 3 4 3 1 4 -1 1 1 2 -4 1 -2 2 -3 -2 1 -1 2 2 -1 0 -3 -6 -5 -4
-29 -8 -1 -16 15 -10 -3 4 7 4 2 2 -1 3 -3 -3 1 2 -5 -2 -1 -3 1 1 -0 5 -3 -1 3 -0 -1 -1
-13 -5 -9 -1 -8 -2 3 2 2 -1 5 -0 -2 1 -2 1 -2 1 -3 1 0 -4 3 -0 0 -2 -3 -0 1 1 1 1
-15 -11 -0 2 1 -2 -2 5 -0 0 -3 -2 -0 -2 -1 -3 3 -3 -0 4 0 -0 -3 -2 -3 -1 -1 1 2 4 2 2
8 -11 -4 -4 3 -2 3 -4 -1 1 2 -2 -0 -2 -0 1 -2 2 3 5 -1 2 2 -0 1 0 1 -1 -6 -4 -3 -1
5 -6 -1 -3 2 6 -0 2 -2 6 1 -3 -3 0 -0 -4 -1 -1 2 1 2 4 -2 1 3 -1 -1 -3 -3 -3 -3 -1
-6 -2 2 1 0 8 -1 3 2 -4 -0 -5 2 -1 2 3 2 -0 -0 2 -1 8 -1 2 -1 -1 -0 -1 -1 0 -2 -0
3 1 1 -2 0 -1 -0 1 2 0 1 1 -1 3 4 -0 4 2 4 -0 2 3 -2 2 2 -3 -2 -2 -0 -1 -0 -3
3 0 2 -1 1 2 2 5 4 0 4 4 3 2 3 2 -1 2 5 -2 3 1 -3 -1 -2 -4 -6 -6 2 3 -2 -1
1 1 1 -2 0 3 4 -0 3 2 1 5 0 -0 -1 -3 4 -0 2 2 -2 -8 -3 2 -4 -3 -0 3 -1 -4 -0 0
-3 -5 -1 -1 3 -0 2 -1 -2 1 3 0 -1 -4 -0 2 3 -0 3 -5 -2 -0 5 2 1 3 1 -0 -1 -1 -5 -1
-2 2 -2 -5 -2 -2 0 1 4 5 -0 1 -4 -2 4 2 3 2 -1 1 4 4 3 2 -2 1 0 -0 -3 -2 4 -0
-4 -5 -2 -0 3 3 3 7 5 1 -4 -4 -2 2 2 5 5 5 2 1 4 3 -1 -6 2 -1 -1 -1 -2 -2 -1 -5
5 1 -2 2 2 0 2 1 -2 -3 1 2 1 7 6 4 3 4 9 5 2 -4 -4 -1 -3 -2 -1 -4 -1 4 0 -1
0 2 4 4 1 0 1 -1 0 5 4 4 4 2 -2 -0 -2 -6 -5 -6 -2 1 2 2 4 -0 -2 -2 1 2 0 1
0 -3 -4 6 2 0 2 -1 4 3 3 3 3 5 4 1 6 9 1 6 8 -3 -7 -7 1 -1 -2 2 1 -0 -1 2
4 -0 -2 2 5 1 3 8 4 1 -2 -2 -2 -1 -1 2 -1 0 10 5 -16 -5 -0 -3 3 3 -3 1 -2 -2 1 1
5 0 -2 -1 4 3 5 5 0 7 5 3 2 3 3 -2 -2 -7 -4 -3 -9 3 -9 1 -7 -3 -2 0 -2 -1 -2 -2
Height
1519 1521 1524 1529 1539 1540 1542 1545 1548 1551 1554 1557 1560 1561 1563 1564 1565 1565 1566 1568 1569 1569 1571 1572 1571 1571 1573 1572 1572 1569 1569 1568
1512 1523 1528 1535 1540 1543 1547 1548 1553 1554 1556 1559 1562 1565 1567 1568 1568 1568 1569 1570 1570 1571 1572 1570 1572 1571 1572 1573 1572 1569 1568 1567
1525 1529 1535 1537 1542 1547 1552 1553 1554 1557 1559 1561 1564 1566 1568 1569 1570 1570 1571 1571 1570 1572 1573 1571 1572 1572 1572 1572 1570 1568 1568 1568
1531 1534 1536 1540 1547 1549 1554 1555 1555 1558 1562 1563 1565 1568 1568 1570 1571 1569 1571 1571 1572 1572 1574 1572 1573 1571 1571 1571 1569 1567 1568 1567
1530 1534 1539 1544 1548 1551 1554 1555 1558 1561 1564 1565 1567 1568 1568 1570 1570 1570 1572 1572 1572 1573 1573 1574 1573 1571 1572 1571 1568 1567 1566 1566
1533 1538 1542 1546 1549 1552 1555 1559 1559 1562 1563 1565 1568 1569 1570 1570 1570 1571 1573 1573 1571 1573 1573 1573 1573 1572 1571 1570 1568 1566 1565 1563
1535 1539 1542 1546 1549 1552 1554 1559 1562 1563 1564 1565 1567 1568 1570 1570 1570 1572 1574 1572 1572 1572 1572 1573 1573 1572 1570 1568 1568 1566 1565 1561
1537 1539 1543 1546 1550 1552 1554 1558 1561 1563 1565 1565 1567 1567 1570 1569 1570 1571 1572 1571 1573 1572 1570 1573 1570 1570 1569 1567 1565 1563 1561 1559
1537 1539 1542 1546 1550 1552 1555 1557 1560 1562 1563 1565 1566 1568 1567 1568 1569 1570 1570 1570 1572 1570 1569 1570 1569 1569 1567 1566 1564 1561 1558 1555
1536 1539 1542 1545 1549 1553 1555 1557 1560 1561 1564 1564 1565 1567 1566 1567 1568 1569 1567 1568 1571 1569 1568 1569 1565 1566 1566 1565 1562 1558 1554 1553
1538 1540 1541 1544 1548 1552 1555 1557 1559 1562 1563 1563 1563 1564 1565 1565 1567 1568 1566 1566 1569 1567 1567 1568 1563 1561 1562 1561 1558 1554 1553 1553
1537 1540 1542 1544 1549 1551 1553 1556 1558 1560 1562 1561 1560 1562 1563 1563 1565 1565 1565 1565 1566 1564 1566 1562 1559 1557 1557 1556 1553 1552 1553 1552
1535 1538 1540 1543 1546 1547 1550 1552 1555 1557 1558 1559 1558 1560 1562 1562 1563 1562 1563 1562 1563 1562 1561 1558 1555 1554 1553 1553 1551 1549 1550 1551
1531 1534 1536 1539 1543 1546 1549 1551 1553 1554 1555 1556 1556 1560 1560 1560 1560 1560 1558 1560 1560 1558 1556 1554 1553 1552 1552 1549 1549 1551 1550 1548
1526 1529 1533 1536 1541 1544 1547 1548 1549 1550 1551 1553 1555 1557 1557 1557 1557 1557 1557 1558 1557 1554 1554 1553 1553 1552 1551 1552 1550 1549 1548 1545
1524 1526 1531 1534 1538 1541 1541 1543 1544 1546 1549 1551 1552 1554 1554 1554 1555 1555 1555 1554 1553 1552 1554 1552 1549 1548 1548 1549 1550 1550 1547 1543
1521 1526 1529 1533 1535 1536 1538 1539 1542 1545 1546 1547 1549 1550 1550 1551 1552 1553 1554 1553 1554 1554 1554 1552 1549 1547 1545 1545 1547 1546 1544 1542
1519 1523 1526 1529 1531 1532 1533 1535 1538 1541 1542 1543 1544 1546 1548 1549 1550 1550 1549 1551 1550 1549 1550 1550 1548 1545 1544 1543 1542 1542 1540 1538
1517 1519 1521 1525 1526 1528 1529 1530 1534 1535 1537 1539 1541 1543 1545 1546 1546 1546 1546 1543 1548 1549 1547 1546 1545 1542 1540 1540 1538 1537 1536 1533
1511 1515 1519 1521 1522 1524 1526 1527 1530 1531 1534 1535 1538 1539 1541 1542 1542 1541 1544 1542 1545 1546 1546 1543 1541 1539 1537 1535 1533 1532 1530 1526